Location: Córrego Montividiu
(13.2496°S, 48.8603°W)
Time: 12:10:02
(UTC+00:00)

Cosmos 1452 Rocket - Pass Details

Date: 11 March 2026
Orbit: 764 x 769 km, 74.1° (Epoch: 22 April)

Event Time Altitude Azimuth Distance (km) Brightness Sun altitude
Rises 22:26:38 0° 342° (NNW) 3,209 6.9 -14.1°
Reaches altitude 10° 22:29:00 10° 340° (NNW) 2,288 6.1 -14.6°
Maximum altitude 22:34:09 69° 257° (WSW) 818 3.8 -15.9°
Drops below altitude 10° 22:39:22 10° 173° (S) 2,309 6.0 -17.1°
Sets 22:41:46 0° 171° (S) 3,240 6.7 -17.7°
